Date,TemperatureHighF,TemperatureAvgF,TemperatureLowF,DewpointHighF,DewpointAvgF,DewpointLowF,HumidityHigh,HumidityAvg,HumidityLow,PressureMaxIn,PressureMinIn,WindSpeedMaxMPH,WindSpeedAvgMPH,GustSpeedMaxMPH,PrecipitationSumIn
2013-3-1,69.0,53.0,42.3,45.2,39.2,28.8,95,63,25,30.04,29.92,3,1,10,0.00
2013-3-2,59.9,48.9,35.3,37.3,32.9,28.0,89,56,31,30.07,29.98,6,2,18,0.00
2013-3-3,53.9,41.5,28.1,32.1,29.3,23.8,90,63,42,30.18,30.03,4,1,12,0.00
2013-3-4,66.8,44.6,24.6,36.8,27.3,22.5,96,60,21,30.26,30.14,7,1,12,0.00
2013-3-5,79.2,57.6,32.5,57.0,43.0,29.9,96,64,30,30.21,30.03,6,2,14,0.00
2013-3-6,68.3,57.4,43.8,60.8,39.7,28.3,93,56,24,30.17,29.94,5,2,14,0.00
2013-3-7,68.8,49.5,31.5,39.7,34.2,27.5,91,60,28,30.26,30.15,5,1,11,0.00
2013-3-8,76.7,53.3,29.3,46.3,36.8,28.0,96,62,20,30.26,30.13,5,1,11,0.00
2013-3-9,75.7,56.9,36.5,51.2,45.0,35.1,97,69,35,30.26,30.16,8,2,12,0.00
2013-3-10,78.9,63.8,47.4,56.2,52.3,45.8,96,70,39,30.21,30.09,11,4,19,0.00
2013-3-11,80.1,65.5,46.9,59.3,55.2,44.8,97,72,47,30.14,29.91,10,2,19,0.00
2013-3-12,74.3,64.2,52.7,65.4,59.9,50.4,94,86,73,30.06,29.87,6,2,14,0.08
2013-3-13,76.8,58.5,42.1,50.5,39.8,28.2,96,59,18,30.20,30.06,5,1,13,0.01
2013-3-14,69.0,52.6,35.1,43.0,33.0,24.5,85,54,20,30.31,30.19,6,2,14,0.00
2013-3-15,75.4,51.4,28.7,46.8,34.3,26.3,96,61,23,30.32,30.16,5,1,11,0.00
2013-3-16,83.1,58.1,35.6,52.3,40.0,33.5,97,60,21,30.21,30.06,4,1,12,0.00
2013-3-17,80.0,60.0,39.9,58.9,49.1,35.1,97,72,39,30.16,30.01,7,1,13,0.01
2013-3-18,79.9,69.1,58.5,65.6,61.8,56.5,95,79,58,30.07,29.92,5,2,11,0.08
2013-3-19,88.0,71.9,59.6,65.0,61.4,57.9,98,73,37,30.05,29.91,5,1,12,0.00
2013-3-20,78.1,65.8,55.3,66.4,60.0,50.9,96,82,61,30.00,29.81,6,1,11,0.18
2013-3-21,74.2,57.1,41.3,54.7,41.2,26.9,97,64,18,30.00,29.89,5,1,11,0.01
2013-3-22,81.4,57.6,37.3,60.8,46.7,35.3,97,73,32,30.04,29.92,8,2,15,0.23
2013-3-23,86.1,72.2,59.5,72.2,65.8,58.1,97,82,55,30.01,29.79,9,2,18,0.07
2013-3-24,81.7,72.0,65.1,73.1,67.9,62.5,96,87,72,29.85,29.64,11,4,28,0.50
2013-3-25,73.9,62.4,48.0,63.3,45.1,28.0,95,59,21,30.06,29.73,4,1,11,0.00
2013-3-26,61.7,50.2,35.7,41.0,28.8,19.5,83,47,21,30.27,30.06,5,2,14,0.00
2013-3-27,66.4,47.9,33.8,36.6,31.7,26.9,87,59,23,30.34,30.23,5,1,12,0.00
2013-3-28,74.0,51.9,29.9,42.1,32.9,26.2,96,58,18,30.33,30.20,5,1,11,0.00
2013-3-29,76.1,55.4,34.2,51.6,36.5,30.8,96,58,20,30.36,30.21,6,1,13,0.00
2013-3-30,82.9,60.2,38.8,54.1,45.0,36.9,96,63,31,30.29,30.13,5,1,12,0.00
2013-3-31,84.4,65.9,51.0,56.3,51.7,46.8,95,66,31,30.19,30.01,6,2,15,0.00